カタログに戻る

ATLAS AGENA B DEB

LostPO
NORAD 3121·DEBRIS·🇺🇸 United States

打ち上げ Jul 19, 1963 から Vandenberg Space Force Base

Loading…

次のパス (今後24時間)

TLE

古いSource: Space-Track

元期: Sep 22, 2025, 18:38 UTC

1  3121U 63030F   25265.77665337 -.00000023  00000-0 -12932-1 0  9998
2  3121  88.4265 223.3936 0032008 335.5634  24.3698  8.57967986183832

AllMySatでATLAS AGENA B DEBをリアルタイム追跡

Download on the App Store